Location: ??????
(41.3164°N, 22.6615°E)
Time: 08:25:14
(UTC+00:00)

CUBEBUG 2 - Pass Details

Date: 03 July 2022
Orbit: 584 x 693 km, 97.7° (Epoch: 07 August)

Event Time Altitude Azimuth Distance (km) Brightness Sun altitude
Rises 01:24:10 0° 13° (NNE) 2,839 ? -14.5°
Reaches altitude 10° 01:26:19 10° 15° (NNE) 1,943 ? -14.3°
Maximum altitude 01:30:31 78° 101° (E) 626 ? -13.8°
Enters shadow 01:34:02 15° 188° (S) 1,658 ? -13.3°
